Location: El Gallo
(32.4380°N, 116.9347°W)
Time: 20:49:26
(UTC+00:00)

Cosmos 2278 - Pass Details

Date: 01 October 2022
Orbit: 841 x 851 km, 71.1° (Epoch: 01 December)

Event Time Altitude Azimuth Distance (km) Brightness Sun altitude
Rises 13:06:09 0° 335° (NNW) 3,398 6.6 -8.4°
Reaches altitude 10° 13:08:37 10° 332° (NNW) 2,460 5.9 -7.8°
Maximum altitude 13:14:10 62° 253° (WSW) 941 3.7 -6.7°
Drops below altitude 10° 13:19:42 10° 174° (S) 2,448 6.2 -5.5°
Sets 13:22:10 0° 170° (S) 3,381 7.0 -5.0°
